SL-16 DEB

Satellite information

Favourite Embed

Satellite Type and Status

DEBRISIN ORBIT

Key statistics

Satellite SL-16 DEB at a glance.

Uptime

11992

Days in orbit

Revolutions

≈ 13.9

Per day

Orbit

LEO

Low Earth Orbit

Inclination

71.2

Latest

Satellite identification and parameters

Extended collection of information and parameters for SL-16 DEB.

Object identification

Identified? True

Debris? True

Object name: SL-16 DEB

International designator: 1992-093BL

Object number (NORAD): 22371

Object ID (CCSDS): 22371

Country: COMMONWEALTH OF INDEPENDENT STATES (CIS)

Current information (Y/N): Y

RCS size: LARGE

Orbital parameters

Period: 103.315 minutes

Inclination: 71.1668 deg

SMA: 7293.48 km

Apoapsis: 998.348 km

Periapsis: 832.341 km

RAAN: 314.8724 deg

Eccentricy: 0.0113805

Argument of periapsis: 258.6747 deg

Mean anomaly: 275.2928 deg

Mean motion: 13.93800487 rev/day

Mean motion (dot): 0.00000237 rev/day2

B* drag term: 0.00020281178 1/REarth

Two-line elements (TLE)

Creation date: Oct. 25, 2025, 3:11 a.m.

Reference frame: TEME

Reference center: EARTH

Epoch: Oct. 24, 2025, 8:11 p.m. UTC

TLE line 0: 0 SL-16 DEB

TLE line 1: 1 22371U 92093BL 25297.84163777 .00000237 00000-0 20281-3 0 9994

TLE line 2: 2 22371 71.1668 314.8724 0113805 258.6747 275.2928 13.93800487666581

Live tracking on map

Real-time ground track for satellite SL-16 DEB.

In-orbit conjunctions

A list of the most updated potential collisions computed for object SL-16 DEB.

Target Orbit TCA Probability of collision Miss distance Type
COSMOS 1697 LEO 2025-03-25 21:48:24 0.0003908197 338.0 (m) PAYLOAD

Associated space launch

Second generation ELING satellite

SL-16 DEB was lifted into orbit during the mission ‘Zenit-2 | Tselina-2 12’, on board a Zenit-2 space rocket.

The launch took place on Dec. 25, 1992, 5:56 a.m. from 45/1.

For more information about the launch, click the button.

Launch to space Zenit-2 | Tselina-2 12
Zenit-2 | Tselina-2 12

Agency: N/A

Status: Launch Successful

Launch date: Dec. 25, 1992, 5:56 a.m. UTC

Rocket: Zenit-2

Launch pad: 45/1

Location: Baikonur Cosmodrome, Republic of Kazakhstan

...

Latest news about this satellite

There are no fresh news available about this satellite. Check back as we update our databases every day.


Newsletter sign-up

Weekly statistics, charts and insights to help you stay on top of the space industry.